x

South Brooks (46132) Wave Buoy

1:00 - Sat 23rd May 2015 All times are PDT. -7 hours from GMT.

  • Sig Wave height 5.9ft
  • Peak Period 7s
  • Wind
    22mph, 29mph gusts
  • Sea Temp 51°f
  • Luft Temp 51°f
  • Sea Pressure 1018.7mb
  • South Brooks
  • South Brooks

More Historic Weather Station data

Upgrade to MSW Pro to gain access to the past 30 days of data for over 8000 Wavebouys and Weather Stations around the globe.

Join Pro

Comparision Forecast

View Surf forecast
   
Sa 05/23 1:00 6ft 7s 22 29 mph 1018.7mb 51f 51f
12:00 6ft 8s 25 29 mph 1018.4mb 51f 51f
Fr 05/22 11:00 6.5ft 8s 25 29 mph 1018.3mb 51f 51f
10:00 6.5ft 8s 25 31 mph 1017.8mb 51f 50f
8:00 7ft 8s 22 29 mph 1017.2mb 51f 51f
7:00 6ft 8s 25 31 mph 1016.9mb 51f 52f
6:00 6.5ft 8s 22 29 mph 1016.6mb 51f 51f
5:00 6.5ft 9s 25 29 mph 1016.7mb 51f 51f
4:00 6.5ft 8s 25 31 mph 1016.3mb 51f 51f
3:00 6.5ft 9s 25 29 mph 1016.3mb 51f 51f
2:00 6.5ft 8s 22 29 mph 1016.2mb 51f 51f
1:00 6ft 9s 25 29 mph 1016.4mb 51f 51f
12:00 6.5ft 8s 22 27 mph 1016.2mb 51f 51f
11:00 6.5ft 8s 25 29 mph 1015.9mb 51f 51f
10:00 6ft 9s 25 29 mph 1015.7mb 51f 51f
9:00 6ft 8s 22 27 mph 1015.4mb 51f 51f
8:00 6.5ft 8s 25 29 mph 1015.1mb 51f 51f
7:00 6.5ft 7s 27 31 mph 1014.4mb 51f 50f
6:00 7ft 9s 25 29 mph 1014mb 51f 49f
5:00 6.5ft 10s 27 31 mph 1013.9mb 51f 49f
4:00 7ft 6s 27 31 mph 1013.7mb 51f 49f
3:00 7ft 5s 29 34 mph 1013.5mb 51f 50f
2:00 7ft 6s 29 38 mph 1013.4mb 51f 50f
1:00  -   -  31
mph
1013.1mb - 51f
12:00  -   -  31
mph
- - -
Do 05/21 11:00 8ft 6s 29 34 mph 1012.9mb 51f 51f
10:00 8ft 6s 29 36 mph 1012.9mb 51f 50f
9:00 8ft 6s 31 38 mph 1012.7mb 51f 50f
8:00 8ft 6s 29 36 mph 1012.5mb 51f 50f
7:00 9ft 7s 31 40 mph 1012.3mb 51f 50f
6:00 8ft 6s 29 34 mph 1012.3mb 51f 51f
5:00 8ft 6s 31 40 mph 1012.2mb 51f 51f
4:00 8ft 6s 31 38 mph 1012.4mb 51f 51f
2:00 8ft 6s 29 38 mph 1012.8mb 51f 51f
1:00 7.5ft 7s 31 36 mph 1012.7mb 51f 51f
12:00 7.5ft 7s 31 38 mph 1012.9mb 51f 51f
11:00 7.5ft 6s 29 36 mph 1012.9mb 51f 50f
9:00 7ft 6s 29 34 mph 1012.8mb 51f 50f
8:00 7ft 6s 29 34 mph 1012.9mb 51f 50f
7:00 7.5ft 6s 29 34 mph 1012.7mb 51f 50f
6:00 7.5ft 6s 31 36 mph 1012.4mb 51f 49f
5:00 7.5ft 6s 29 36 mph 1012.5mb 51f 50f
4:00 7.5ft 6s 29 34 mph 1012.7mb 51f 50f
3:00 7.5ft 6s 27 34 mph 1012.9mb 51f 50f
2:00 7.5ft 6s 27 34 mph 1012.7mb 51f 50f
1:00 7.5ft 6s 27 36 mph 1013mb 51f 50f
12:00 8ft 6s 29 34 mph 1013.3mb 51f 50f
Mi 05/20 11:00 8ft 6s 29
mph
1013.5mb 51f 50f
9:00 8ft 7s 31 38 mph 1013.5mb 50f 50f
7:00 8ft 6s 29 34 mph 1013.7mb 50f 50f
6:00  -   -  29
mph
1013.9mb 50f 51f
5:00 7ft 6s 27 34 mph 1014.3mb 50f 51f
4:00 7ft 6s 27 31 mph 1014.9mb 50f 51f
3:00 6.5ft 6s 27 31 mph 1015.6mb 50f 51f
2:00 6ft 5s 25 31 mph 1016.2mb 50f 50f
1:00 6ft 5s 22 29 mph 1016.5mb 50f 50f
12:00 5.5ft 12s 20 27 mph 1017.1mb 50f 51f
11:00 6ft 14s 20 27 mph 1017.3mb 51f 51f
9:00 5.5ft 6s 22 27 mph 1017.3mb 51f 51f
8:00 6ft 5s 22 27 mph 1017.5mb 51f 50f
7:00 5.5ft 6s 25 29 mph 1017.3mb 52f 50f
6:00 5.5ft 5s 25 29 mph 1017.3mb 52f 50f
5:00 5.5ft 6s 25 31 mph 1017.1mb 53f 50f
4:00 5.5ft 5s 25 31 mph 1017.3mb 53f 50f
3:00 6ft 6s 27 29 mph 1017.4mb 53f 50f
2:00 6ft 6s 25 29 mph 1017.6mb 52f 50f
1:00 6ft 6s 27 31 mph 1017.8mb 52f 50f
12:00 6ft 6s 27 34 mph 1018mb 52f 50f
Di 05/19 11:00 6.5ft 5s 27 34 mph 1017.9mb 52f 51f
10:00  -   -  29
mph
- - -
9:00 6ft 5s 27 31 mph 1018.2mb 52f 51f
8:00 6ft 5s 27 31 mph 1018.2mb 52f 51f
7:00 5.5ft 5s 27 34 mph 1018.3mb 52f 51f
6:00 5.5ft 10s 25 31 mph 1018.5mb 52f 52f
5:00 5.5ft 6s 27 31 mph 1018.6mb 52f 51f
4:00 5.5ft 10s 25 29 mph 1019.1mb 52f 51f
3:00 5ft 11s 25 29 mph 1019.6mb 52f 51f
2:00 5ft 10s 22 27 mph 1019.9mb 52f 51f
1:00 5ft 11s 20 25 mph 1020.2mb 52f 51f
12:00 5ft 10s 20 22 mph 1020.6mb 52f 51f
11:00 5ft 11s 18 22 mph 1020.6mb 52f 50f
10:00 5ft 11s 18 20 mph 1020.8mb 52f 50f